| time (UTC) | temp F | wind direction | speed knots | gust knots | rain 1hr in | rain 24hr in | rain mn in | humidity % | barometer mb |
| 20260503021545 | 52 | 89 | 0.9 | 6.1 | 0.00 | 0.08 | 0.00 | 1 | 1007.8 |
| 20260503020036 | 52 | 75 | 3.5 | 5.2 | 0.00 | 0.08 | 0.00 | 1 | 1007.9 |
| 20260503014532 | 52 | 57 | 4.3 | 6.1 | 0.00 | 0.08 | 0.00 | 1 | 1008.0 |
| 20260503013027 | 52 | 61 | 1.7 | 4.3 | 0.00 | 0.08 | 0.00 | 1 | 1008.1 |
| 20260503011523 | 52 | 67 | 1.7 | 4.3 | 0.00 | 0.08 | 0.00 | 1 | 1008.2 |
| 20260503010029 | 52 | 61 | 2.6 | 5.2 | 0.00 | 0.08 | 0.00 | 1 | 1008.3 |
| 20260503004515 | 52 | 61 | 1.7 | 3.5 | 0.00 | 0.08 | 0.00 | 1 | 1008.4 |
| 20260503003010 | 52 | 72 | 2.6 | 3.5 | 0.00 | 0.08 | 0.00 | 1 | 1008.4 |
| 20260503001506 | 52 | 76 | 1.7 | 4.3 | 0.00 | 0.08 | 0.00 | 1 | 1008.6 |
| 20260503000002 | 52 | 96 | 1.7 | 3.5 | 0.00 | 0.08 | 0.00 | 1 | 1008.6 |
| 20260502234558 | 52 | 90 | 1.7 | 5.2 | 0.00 | 0.08 | 0.00 | 1 | 1008.7 |
| 20260502233056 | 52 | 103 | 1.7 | 6.1 | 0.00 | 0.08 | 0.00 | 1 | 1008.8 |
| 20260502231549 | 52 | 87 | 2.6 | 7.0 | 0.00 | 0.08 | 0.00 | 1 | 1008.8 |
| 20260502230045 | 52 | 108 | 5.2 | 7.0 | 0.00 | 0.08 | 0.00 | 1 | 1008.8 |
| 20260502224540 | 52 | 116 | 3.5 | 6.1 | 0.01 | 0.08 | 0.08 | 1 | 1008.9 |
| 20260502223035 | 52 | 102 | 5.2 | 8.7 | 0.01 | 0.08 | 0.08 | 1 | 1008.9 |
| 20260502221532 | 52 | 122 | 2.6 | 7.0 | 0.01 | 0.08 | 0.08 | 1 | 1009.0 |
| 20260502220030 | 52 | 130 | 1.7 | 7.0 | 0.01 | 0.08 | 0.08 | 1 | 1009.0 |
| 20260502214522 | 52 | 132 | 3.5 | 7.0 | 0.00 | 0.07 | 0.07 | 1 | 1009.0 |
| 20260502213020 | 52 | 123 | 3.5 | 6.1 | 0.00 | 0.07 | 0.07 | 1 | 1009.0 |
| 20260502211514 | 52 | 131 | 2.6 | 9.6 | 0.00 | 0.07 | 0.07 | 1 | 1009.0 |
| 20260502210009 | 52 | 128 | 5.2 | 7.8 | 0.00 | 0.07 | 0.07 | 1 | 1009.0 |
| 20260502204514 | 52 | 97 | 2.6 | 7.0 | 0.00 | 0.07 | 0.07 | 1 | 1009.0 |
| 20260502203100 | 53 | 132 | 2.6 | 5.2 | 0.00 | 0.07 | 0.07 | 1 | 1009.1 |
| 20260502201559 | 53 | 97 | 2.6 | 7.0 | 0.00 | 0.07 | 0.07 | 1 | 1009.0 |
| 20260502200056 | 52 | 94 | 5.2 | 9.6 | 0.01 | 0.07 | 0.07 | 1 | 1009.1 |
| 20260502194548 | 52 | 121 | 3.5 | 8.7 | 0.01 | 0.07 | 0.07 | 1 | 1009.0 |
| 20260502193046 | 52 | 101 | 7.0 | 10.4 | 0.01 | 0.07 | 0.07 | 1 | 1009.1 |
| 20260502191539 | 52 | 103 | 7.0 | 10.4 | 0.01 | 0.07 | 0.07 | 1 | 1009.1 |
| 20260502190036 | 52 | 104 | 2.6 | 7.0 | 0.00 | 0.06 | 0.06 | 1 | 1009.0 |
| 20260502184536 | 52 | 75 | 2.6 | 7.8 | 0.00 | 0.06 | 0.06 | 1 | 1009.0 |
| 20260502183026 | 52 | 85 | 2.6 | 5.2 | 0.01 | 0.06 | 0.06 | 1 | 1009.1 |
| 20260502181522 | 52 | 66 | 2.6 | 7.8 | 0.03 | 0.06 | 0.06 | 1 | 1009.2 |
| 20260502163100 | 52 | 107 | 3.5 | 7.8 | 0.01 | 0.02 | 0.02 | 1 | 1009.6 |
| 20260502161554 | 52 | 93 | 6.1 | 13.0 | 0.00 | 0.01 | 0.01 | 1 | 1009.6 |
| 20260502151537 | 53 | 121 | 5.2 | 8.7 | 0.00 | 0.01 | 0.01 | 1 | 1010.3 |
| 20260502130107 | 54 | 128 | 3.5 | 8.7 | 0.00 | 0.00 | 0.00 | 1 | 1011.5 |
| 20260502123054 | 54 | 120 | 8.7 | 15.6 | 0.00 | 0.00 | 0.00 | 1 | 1011.9 |
| 20260502121538 | 54 | 127 | 7.8 | 13.9 | 0.00 | 0.00 | 0.00 | 1 | 1012.0 |
| 20260502114530 | 54 | 151 | 7.0 | 12.2 | 0.00 | 0.00 | 0.00 | 1 | 1012.2 |
| 20260502113025 | 54 | 145 | 7.0 | 9.6 | 0.00 | 0.00 | 0.00 | 1 | 1012.3 |
| 20260502111520 | 54 | 127 | 6.1 | 13.0 | 0.00 | 0.00 | 0.00 | 1 | 1012.3 |
| 20260502110016 | 54 | 141 | 7.8 | 13.9 | 0.00 | 0.00 | 0.00 | 1 | 1012.4 |
| 20260502104516 | 54 | 160 | 8.7 | 12.2 | 0.00 | 0.00 | 0.00 | 1 | 1012.4 |
| 20260502103007 | 54 | 175 | 9.6 | 14.8 | 0.00 | 0.00 | 0.00 | 1 | 1012.3 |
| 20260502101503 | 54 | 120 | 4.3 | 11.3 | 0.00 | 0.00 | 0.00 | 1 | 1012.3 |
| 20260502071511 | 52 | 126 | 5.2 | 8.7 | 0.00 | 0.00 | 0.00 | 1 | 1013.1 |
| 20260502070008 | 52 | 116 | 6.1 | 9.6 | 0.00 | 0.00 | 0.00 | 1 | 1013.1 |
| 20260502064509 | 52 | 170 | 7.0 | 11.3 | 0.00 | 0.00 | 0.00 | 1 | 1013.2 |
| 20260502063120 | 52 | 147 | 6.1 | 10.4 | 0.00 | 0.00 | 0.00 | 1 | 1013.2 |
| 20260502061555 | 52 | 155 | 3.5 | 7.0 | 0.00 | 0.00 | 0.00 | 1 | 1013.1 |
| 20260502060050 | 52 | 110 | 1.7 | 7.0 | 0.00 | 0.00 | 0.00 | 1 | 1013.1 |
| 20260502054547 | 52 | 134 | 3.5 | 8.7 | 0.00 | 0.00 | 0.00 | 1 | 1013.0 |
| 20260502053052 | 52 | 145 | 6.1 | 9.6 | 0.00 | 0.00 | 0.00 | 1 | 1013.1 |
| 20260502051537 | 52 | 213 | 4.3 | 7.0 | 0.00 | 0.00 | 0.00 | 1 | 1013.2 |
| 20260502050032 | 52 | 132 | 1.7 | 6.1 | 0.00 | 0.00 | 0.00 | 1 | 1013.3 |
| 20260502044528 | 52 | 143 | 4.3 | 7.8 | 0.00 | 0.01 | 0.00 | 1 | 1013.3 |
| 20260502043024 | 52 | 145 | 3.5 | 8.7 | 0.00 | 0.01 | 0.00 | 1 | 1013.4 |
| 20260502041520 | 52 | 148 | 4.3 | 10.4 | 0.00 | 0.01 | 0.00 | 1 | 1013.4 |
| 20260502040015 | 52 | 173 | 6.1 | 11.3 | 0.00 | 0.01 | 0.00 | 1 | 1013.6 |
| 20260502034511 | 53 | 149 | 5.2 | 8.7 | 0.00 | 0.01 | 0.00 | 1 | 1013.7 |
| 20260502033011 | 53 | 133 | 1.7 | 7.0 | 0.00 | 0.01 | 0.00 | 1 | 1013.8 |
| 20260502031503 | 53 | 178 | 3.5 | 8.7 | 0.00 | 0.01 | 0.00 | 1 | 1013.9 |
| 20260502030058 | 52 | 153 | 3.5 | 7.8 | 0.00 | 0.01 | 0.00 | 1 | 1014.0 |
| 20260502024604 | 53 | 140 | 4.3 | 9.6 | 0.00 | 0.01 | 0.00 | 1 | 1014.1 |
| 20260502023049 | 53 | 134 | 7.0 | 11.3 | 0.00 | 0.01 | 0.00 | 1 | 1014.1 |